1512342000.81,23823,3.38,72708.0,-13.67,-16.27,-16.27,0,*6B
1512342002.08,23824,3.38,72704.3,-13.69,-16.13,-16.17,0,*66
1512342003.29,23825,3.38,72698.5,-13.69,-16.03,-16.03,0,*63
1512342004.56,23826,3.38,72698.8,-13.69,-15.89,-15.85,0,*6C
1512342005.82,23827,3.38,72702.3,-13.69,-15.89,-15.89,0,*61
1512342007.05,23828,3.38,72702.0,-13.67,-15.99,-16.03,0,*60
1512342008.3,23829,3.38,72702.5,-13.65,-16.09,-15.99,0,*69
1512342009.57,23830,3.38,72708.8,-13.65,-16.09,-16.13,0,*60
1512342010.87,23831,3.44,72704.8,-13.67,-16.13,-16.17,0,*6C
1512342012.16,23832,3.38,72700.0,-13.67,-16.17,-16.13,0,*6F
1512342013.45,23833,3.38,72706.3,-13.67,-16.17,-16.17,0,*6A
1512342014.74,23834,3.38,72706.5,-13.67,-16.31,-16.27,0,*6A
1512342016.02,23835,3.38,72702.8,-13.67,-16.31,-16.31,0,*6C
1512342017.28,23836,3.38,72702.8,-13.67,-16.31,-16.41,0,*68
1512342018.52,23837,3.38,72702.0,-13.67,-16.45,-16.45,0,*6E
1512342019.81,23838,3.38,72706.3,-13.67,-16.65,-16.51,0,*66
1512342021.02,23839,3.38,72704.3,-13.65,-16.55,-16.45,0,*63
1512342022.28,23840,3.38,72706.0,-13.67,-16.59,-16.51,0,*66
1512342023.53,23841,3.38,72704.5,-13.67,-16.45,-16.59,0,*62
1512342024.77,23842,3.38,72698.3,-13.67,-16.45,-16.41,0,*68
1512342025.98,23843,3.38,72700.5,-13.69,-16.45,-16.41,0,*67
1512342027.2,23844,3.38,72706.8,-13.69,-16.45,-16.41,0,*60
1512342028.42,23845,3.38,72706.5,-13.69,-16.41,-16.41,0,*65
1512342029.64,23846,3.38,72704.0,-13.69,-16.41,-16.41,0,*66
1512342030.88,23847,3.38,72706.0,-13.69,-16.41,-16.31,0,*60
1512342032.11,23848,3.38,72700.0,-13.71,-16.45,-16.37,0,*64
1512342033.32,23849,3.38,72704.5,-13.69,-16.45,-16.41,0,*6D
1512342034.56,23850,3.38,72704.0,-13.69,-16.51,-16.45,0,*64
1512342035.8,23851,3.38,72704.3,-13.71,-16.55,-16.55,0,*69
1512342037.03,23852,3.38,72710.0,-13.69,-16.59,-16.51,0,*6B
1512342038.28,23853,3.38,72706.3,-13.69,-16.65,-16.59,0,*6D
1512342039.52,23854,3.38,72704.5,-13.69,-16.65,-16.59,0,*6A
1512342040.77,23855,3.38,72706.0,-13.69,-16.65,-16.59,0,*6B
1512342042.04,23856,3.44,72712.8,-13.69,-16.65,-16.65,0,*67
1512342043.28,23857,3.38,72700.5,-13.69,-16.65,-16.75,0,*67
1512342044.57,23858,3.38,72704.8,-13.71,-16.69,-16.69,0,*60
1512342045.83,23859,3.38,72704.3,-13.71,-16.51,-16.55,0,*65
1512342047.06,23860,3.38,72704.8,-13.71,-16.37,-16.45,0,*6E
1512342048.32,23861,3.38,72704.5,-13.69,-16.31,-16.31,0,*63
1512342049.58,23862,3.38,72706.5,-13.69,-16.31,-16.31,0,*60
1512342050.81,23863,3.38,72704.5,-13.71,-16.45,-16.37,0,*6D
1512342052.04,23864,3.38,72698.8,-13.71,-16.37,-16.45,0,*6A
1512342053.28,23865,3.38,72702.5,-13.71,-16.37,-16.37,0,*6E
1512342054.51,23866,3.38,72696.8,-13.71,-16.37,-16.37,0,*6D
1512342055.74,23867,3.38,72702.3,-13.71,-16.45,-16.37,0,*69
1512342057.0,23868,3.38,72702.5,-13.71,-16.51,-16.45,0,*66
1512342058.28,23869,3.38,72698.3,-13.75,-16.51,-16.51,0,*66
1512342059.55,23870,3.38,72700.0,-13.71,-16.55,-16.65,0,*69
1512342060.84,23871,3.38,72698.8,-13.75,-16.65,-16.65,0,*6F
1512342062.13,23872,3.38,72696.0,-13.75,-16.69,-16.65,0,*60
1512342063.4,23873,3.38,72698.0,-13.75,-16.69,-16.79,0,*6C
1512342064.66,23874,3.38,72702.3,-13.71,-16.79,-16.65,0,*63
1512342065.95,23875,3.38,72698.0,-13.71,-16.69,-16.69,0,*6F
1512342067.22,23876,3.38,72702.3,-13.75,-16.69,-16.55,0,*67
1512342068.48,23877,3.38,72700.0,-13.75,-16.79,-16.65,0,*64
1512342069.71,23878,3.38,72702.3,-13.77,-16.83,-16.59,0,*63
1512342070.97,23879,3.38,72696.8,-13.75,-16.79,-16.65,0,*6A
1512342072.19,23880,3.38,72704.0,-13.77,-16.89,-16.75,0,*60
1512342073.46,23881,3.38,72702.5,-13.75,-16.83,-16.69,0,*64
1512342074.71,23882,3.38,72702.5,-13.75,-16.83,-16.75,0,*6A
1512342075.92,23883,3.38,72700.3,-13.77,-16.89,-16.83,0,*6A
1512342077.14,23884,3.38,72700.0,-13.77,-16.97,-16.83,0,*62
1512342078.36,23885,3.38,72702.0,-13.77,-16.97,-16.83,0,*63
1512342079.6,23886,3.38,72702.8,-13.77,-16.93,-16.69,0,*60
1512342080.82,23887,3.38,72706.5,-13.77,-16.89,-16.75,0,*67
1512342082.03,23888,3.38,72702.3,-13.81,-16.93,-16.79,0,*66
1512342083.28,23889,3.38,72702.5,-13.79,-16.89,-16.75,0,*67
1512342084.55,23890,3.38,72704.3,-13.79,-16.75,-16.69,0,*61
1512342085.82,23891,3.38,72706.5,-13.79,-16.83,-16.69,0,*69
1512342087.07,23892,3.38,72706.8,-13.79,-16.89,-16.75,0,*6D
1512342088.34,23893,3.38,72702.3,-13.79,-16.75,-16.69,0,*62
1512342089.61,23894,3.38,72702.3,-13.79,-16.69,-16.59,0,*6B
1512342090.84,23895,3.44,72702.3,-13.81,-16.75,-16.59,0,*60
1512342092.1,23896,3.38,72700.8,-13.79,-16.55,-16.51,0,*6E
1512342093.37,23897,3.38,72704.0,-13.79,-16.51,-16.37,0,*6B
1512342094.66,23898,3.38,72706.3,-13.79,-16.51,-16.27,0,*65
1512342095.93,23899,3.38,72700.3,-13.81,-16.23,-16.13,0,*61
1512342097.2,23900,3.38,72700.5,-13.81,-16.17,-16.13,0,*67
1512342098.48,23901,3.38,72696.3,-13.79,-16.09,-15.95,0,*63
1512342099.73,23902,3.38,72702.3,-13.81,-15.95,-15.81,0,*64
1512342101.0,23903,3.38,72700.0,-13.79,-15.95,-15.81,0,*62
1512342102.26,23904,3.38,72706.0,-13.79,-15.99,-15.81,0,*69
1512342103.53,23905,3.38,72702.5,-13.79,-16.13,-15.99,0,*60
1512342104.8,23906,3.38,72704.8,-13.79,-16.09,-15.99,0,*68
1512342106.05,23907,3.38,72700.0,-13.79,-15.95,-15.95,0,*63
1512342107.32,23908,3.38,72700.5,-13.79,-15.85,-15.95,0,*6D
1512342108.57,23909,3.38,72698.0,-13.79,-15.95,-15.95,0,*6D
1512342109.77,23910,3.38,72696.0,-13.77,-15.99,-15.99,0,*6B
1512342111.05,23911,3.38,72694.3,-13.77,-16.13,-16.09,0,*61
1512342112.31,23912,3.38,72690.5,-13.77,-16.27,-16.23,0,*6D
1512342113.55,23913,3.38,72692.3,-13.77,-16.23,-16.37,0,*6D
1512342114.77,23914,3.38,72694.3,-13.77,-16.41,-16.37,0,*6E
1512342115.98,23915,3.38,72696.3,-13.77,-16.37,-16.37,0,*6E
1512342117.24,23916,3.38,72696.5,-13.75,-16.31,-16.37,0,*69
1512342118.49,23917,3.38,72702.5,-13.79,-16.41,-16.37,0,*63
1512342119.74,23918,3.38,72708.3,-13.79,-16.41,-16.41,0,*6D
1512342120.98,23919,3.38,72708.5,-13.79,-16.41,-16.41,0,*6C
1512342122.22,23920,3.38,72706.3,-13.79,-16.37,-16.37,0,*66
1512342123.51,23921,3.38,72702.3,-13.79,-16.23,-16.23,0,*67
1512342124.82,23922,3.38,72698.3,-13.79,-16.09,-16.09,0,*64
1512342126.02,23923,3.38,72694.0,-13.77,-15.99,-15.99,0,*6B
1512342127.27,23924,3.44,72694.8,-13.77,-16.13,-15.99,0,*6D
1512342128.54,23925,3.38,72686.0,-13.77,-16.23,-16.09,0,*65
1512342129.8,23926,3.38,72694.3,-13.77,-16.23,-16.23,0,*6E
1512342131.07,23927,3.44,72698.3,-13.77,-16.27,-16.23,0,*6B
1512342132.36,23928,3.38,72696.0,-13.75,-16.23,-16.31,0,*61
1512342133.57,23929,3.38,72698.3,-13.77,-16.41,-16.37,0,*60
1512342134.79,23930,3.44,72702.0,-13.77,-16.41,-16.37,0,*68
1512342136.01,23931,3.44,72704.5,-13.77,-16.41,-16.37,0,*69
1512342137.23,23932,3.44,72706.8,-13.77,-16.41,-16.41,0,*6B
1512342138.45,23933,3.38,72702.0,-13.77,-16.37,-16.37,0,*6A
1512342139.69,23934,3.38,72704.0,-13.79,-16.37,-16.37,0,*63
1512342140.91,23935,3.38,72706.0,-13.77,-16.41,-16.37,0,*6D
1512342142.13,23936,3.38,72704.5,-13.77,-16.41,-16.41,0,*6F
1512342143.35,23937,3.38,72700.5,-13.77,-16.41,-16.41,0,*6E
1512342144.61,23938,3.38,72698.3,-13.75,-16.45,-16.51,0,*66
1512342145.85,23939,3.38,72698.3,-13.77,-16.51,-16.55,0,*64
1512342147.14,23940,3.38,72702.0,-13.79,-16.51,-16.51,0,*60
1512342148.43,23941,3.44,72704.0,-13.79,-16.51,-16.51,0,*61
1512342149.69,23942,3.38,72698.5,-13.79,-16.27,-16.37,0,*63
1512342150.97,23943,3.38,72694.8,-13.81,-16.27,-16.17,0,*67
1512342152.26,23944,3.44,72704.0,-13.79,-16.23,-16.13,0,*67
1512342153.53,23945,3.38,72700.3,-13.79,-16.51,-16.41,0,*64
1512342154.78,23946,3.38,72702.0,-13.79,-16.55,-16.41,0,*63
1512342156.04,23947,3.38,72702.8,-13.79,-16.51,-16.45,0,*62
1512342157.3,23948,3.38,72700.8,-13.79,-16.75,-16.51,0,*6E
1512342158.57,23949,3.38,72706.0,-13.79,-16.89,-16.51,0,*6C
1512342159.78,23950,3.38,72702.5,-13.81,-16.93,-16.55,0,*6C
1512342161.0,23951,3.38,72704.8,-13.77,-16.97,-16.55,0,*60
1512342162.26,23952,3.38,72702.8,-13.79,-16.97,-16.51,0,*69
1512342163.51,23953,3.44,72702.8,-13.81,-17.03,-16.59,0,*6B
1512342164.81,23954,3.38,72696.5,-13.79,-17.03,-16.69,0,*68
1512342166.07,23955,3.38,72698.0,-13.79,-17.11,-16.83,0,*6E
1512342167.35,23956,3.38,72696.8,-13.79,-17.17,-16.75,0,*62
1512342168.62,23957,3.38,72684.8,-13.79,-16.97,-16.69,0,*67
1512342169.86,23958,3.38,72688.5,-13.81,-16.93,-16.65,0,*67
1512342171.1,23959,3.38,72698.5,-13.79,-16.97,-16.55,0,*66
1512342172.36,23960,3.38,72706.0,-13.79,-16.89,-16.51,0,*67
1512342173.6,23961,3.38,72708.3,-13.77,-16.89,-16.51,0,*68
1512342174.87,23962,3.44,72702.8,-13.79,-16.89,-16.51,0,*65
1512342176.09,23963,3.38,72696.3,-13.81,-16.89,-16.55,0,*67
1512342177.35,23964,3.38,72696.0,-13.79,-16.83,-16.51,0,*69
1512342178.57,23965,3.38,72696.0,-13.81,-16.89,-16.55,0,*61
1512342179.84,23966,3.38,72698.5,-13.79,-16.83,-16.51,0,*6B
1512342181.11,23967,3.38,72688.8,-13.79,-16.83,-16.51,0,*6A
1512342182.4,23968,3.38,72688.5,-13.79,-16.69,-16.51,0,*61
1512342183.69,23969,3.38,72692.5,-13.79,-16.69,-16.51,0,*60
1512342184.95,23970,3.38,72692.3,-13.79,-16.59,-16.51,0,*6B
1512342186.24,23971,3.38,72698.8,-13.79,-16.69,-16.51,0,*69
1512342187.51,23972,3.38,72696.5,-13.79,-16.83,-16.51,0,*6E
1512342188.73,23973,3.38,72698.5,-13.81,-16.79,-16.55,0,*69
1512342190.02,23974,3.44,72702.5,-13.79,-16.69,-16.51,0,*6C
1512342191.26,23975,3.38,72702.3,-13.79,-16.59,-16.55,0,*6A
1512342192.51,23976,3.38,72700.3,-13.81,-16.65,-16.55,0,*61
1512342193.74,23977,3.38,72702.0,-13.81,-16.75,-16.55,0,*61
1512342194.99,23978,3.38,72706.3,-13.79,-16.83,-16.59,0,*6C
1512342196.21,23979,3.38,72704.3,-13.81,-16.89,-16.75,0,*6E
1512342197.48,23980,3.38,72698.8,-13.79,-16.89,-16.69,0,*62
1512342198.72,23981,3.38,72696.3,-13.81,-17.03,-16.79,0,*66
1512342199.94,23982,3.38,72692.3,-13.81,-16.97,-16.83,0,*6C
1512342201.19,23983,3.44,72694.5,-13.81,-17.07,-16.89,0,*6F
1512342202.43,23984,3.44,72698.0,-13.81,-17.07,-16.89,0,*68
1512342203.67,23985,3.38,72696.3,-13.81,-17.03,-16.89,0,*6D
1512342204.92,23986,3.38,72694.8,-13.81,-17.03,-16.89,0,*6E
1512342206.19,23987,3.44,72700.0,-13.83,-17.03,-16.79,0,*62
1512342207.43,23988,3.44,72702.3,-13.85,-17.03,-16.79,0,*6B
1512342208.7,23989,3.38,72692.8,-13.83,-17.17,-16.93,0,*6D
1512342209.97,23990,3.38,72696.8,-13.83,-17.07,-16.93,0,*64
1512342211.23,23991,3.38,72694.0,-13.83,-17.07,-16.89,0,*6E
1512342212.51,23992,3.38,72698.8,-13.83,-17.03,-16.75,0,*6A
1512342213.78,23993,3.44,72704.5,-13.83,-17.03,-16.79,0,*67
1512342215.0,23994,3.38,72700.0,-13.85,-16.97,-16.83,0,*6F
1512342216.24,23995,3.38,72692.0,-13.83,-16.93,-16.75,0,*65
1512342217.52,23996,3.38,72696.5,-13.83,-17.03,-16.75,0,*6E
1512342218.76,23997,3.38,72696.8,-13.85,-17.07,-16.83,0,*64
1512342220.04,23998,3.44,72700.8,-13.83,-17.03,-16.79,0,*6C
1512342221.28,23999,3.44,72700.3,-13.83,-16.93,-16.75,0,*69
1512342222.55,24000,3.38,72696.8,-13.83,-16.79,-16.65,0,*62
1512342223.8,24001,3.38,72694.3,-13.83,-16.75,-16.59,0,*60
1512342225.05,24002,3.38,72694.8,-13.83,-16.89,-16.59,0,*60
1512342226.29,24003,3.44,72702.5,-13.83,-16.89,-16.75,0,*6F
1512342227.54,24004,3.44,72704.3,-13.85,-16.97,-16.65,0,*60
1512342228.78,24005,3.44,72704.8,-13.85,-16.83,-16.69,0,*68
1512342230.01,24006,3.44,72704.8,-13.85,-16.59,-16.41,0,*66
1512342231.25,24007,3.44,72696.5,-13.85,-16.45,-16.23,0,*6E
1512342232.49,24008,3.38,72692.0,-13.85,-16.23,-16.03,0,*63
1512342233.74,24009,3.38,72694.5,-13.85,-16.23,-16.03,0,*62
1512342235.01,24010,3.38,72694.0,-13.83,-16.45,-16.13,0,*6D
1512342236.22,24011,3.38,72690.3,-13.85,-16.59,-16.37,0,*61
1512342237.49,24012,3.44,72688.5,-13.85,-16.69,-16.51,0,*61
1512342238.71,24013,3.38,72686.5,-13.85,-16.89,-16.59,0,*66
1512342239.96,24014,3.44,72692.3,-13.83,-16.89,-16.59,0,*67
1512342241.23,24015,3.38,72694.8,-13.83,-16.93,-16.65,0,*62
1512342242.5,24016,3.38,72698.3,-13.83,-17.03,-16.59,0,*66
1512342243.77,24017,3.44,72702.8,-13.85,-17.07,-16.69,0,*66
1512342244.99,24018,3.38,72696.8,-13.85,-16.93,-16.59,0,*66
1512342246.23,24019,3.38,72696.8,-13.85,-16.65,-16.45,0,*63
1512342247.45,24020,3.44,72698.3,-13.85,-16.59,-16.45,0,*66
1512342248.69,24021,3.44,72702.3,-13.85,-16.65,-16.37,0,*6D
1512342249.96,24022,3.38,72692.8,-13.83,-16.65,-16.45,0,*6D
1512342251.2,24023,3.38,72696.0,-13.83,-16.75,-16.45,0,*6D
1512342252.44,24024,3.44,72700.8,-13.83,-16.75,-16.45,0,*6A
1512342253.67,24025,3.44,72700.3,-13.85,-16.93,-16.51,0,*60
1512342254.89,24026,3.44,72702.5,-13.85,-16.93,-16.59,0,*6B
1512342256.13,24027,3.44,72702.8,-13.85,-16.93,-16.65,0,*65
1512342257.35,24028,3.38,72702.0,-13.85,-16.93,-16.59,0,*65
1512342258.6,24029,3.44,72702.8,-13.83,-16.59,-16.41,0,*6D
1512342259.85,24030,3.44,72700.5,-13.85,-16.59,-16.23,0,*67
1512342261.11,24031,3.44,72700.3,-13.85,-16.51,-16.23,0,*6E
1512342262.38,24032,3.44,72696.3,-13.85,-16.51,-16.23,0,*6D
1512342263.63,24033,3.44,72698.3,-13.85,-16.59,-16.31,0,*67
1512342264.87,24034,3.44,72698.0,-13.85,-16.65,-16.45,0,*6C
1512342266.11,24035,3.44,72694.3,-13.85,-16.69,-16.45,0,*61
1512342267.35,24036,3.44,72694.0,-13.83,-16.75,-16.45,0,*69
1512342268.58,24037,3.44,72688.5,-13.83,-16.89,-16.45,0,*6B
1512342269.83,24038,3.38,72688.8,-13.83,-16.89,-16.59,0,*69
1512342271.08,24039,3.44,72688.8,-13.83,-16.89,-16.59,0,*68
1512342272.32,24040,3.38,72686.0,-13.85,-16.97,-16.69,0,*6C
1512342273.57,24041,3.38,72682.5,-13.85,-17.07,-16.59,0,*66
1512342274.84,24042,3.38,72680.0,-13.83,-16.93,-16.65,0,*60
1512342276.08,24043,3.44,72690.0,-13.85,-16.97,-16.65,0,*63
1512342277.31,24044,3.38,72692.8,-13.85,-16.83,-16.59,0,*6E
1512342278.58,24045,3.44,72702.5,-13.83,-16.65,-16.55,0,*6D
1512342279.85,24046,3.38,72698.8,-13.85,-16.65,-16.51,0,*6C
1512342281.09,24047,3.44,72698.8,-13.85,-16.59,-16.51,0,*62
1512342282.36,24048,3.44,72696.5,-13.83,-16.65,-16.45,0,*61
1512342283.6,24049,3.44,72700.8,-13.83,-16.59,-16.45,0,*6F
1512342284.86,24050,3.44,72698.8,-13.85,-16.65,-16.51,0,*6B
1512342286.13,24051,3.44,72698.3,-13.85,-16.69,-16.51,0,*66
1512342287.36,24052,3.44,72696.0,-13.85,-16.79,-16.59,0,*6C
1512342288.63,24053,3.38,72694.0,-13.85,-16.69,-16.65,0,*63
1512342289.89,24054,3.44,72696.0,-13.87,-16.79,-16.65,0,*67
1512342291.16,24055,3.44,72698.8,-13.87,-16.83,-16.69,0,*6F
1512342292.41,24056,3.44,72698.8,-13.87,-16.83,-16.59,0,*6F
1512342293.71,24057,3.38,72694.8,-13.87,-16.69,-16.65,0,*65
1512342294.98,24058,3.44,72694.0,-13.87,-16.65,-16.59,0,*69
1512342296.22,24059,3.38,72686.8,-13.85,-16.45,-16.31,0,*66
1512342297.47,24060,3.44,72690.5,-13.85,-16.17,-16.03,0,*6A
1512342298.75,24061,3.44,72694.3,-13.85,-16.17,-16.09,0,*61
1512342300.01,24062,3.44,72690.0,-13.85,-16.31,-16.23,0,*6E
1512342301.28,24063,3.44,72694.5,-13.85,-16.51,-16.31,0,*6A
1512342302.52,24064,3.44,72690.3,-13.85,-16.51,-16.37,0,*6B
1512342303.74,24065,3.44,72692.0,-13.85,-16.59,-16.45,0,*67
1512342305.0,24066,3.44,72688.5,-13.85,-16.51,-16.51,0,*69
1512342306.24,24067,3.44,72698.5,-13.85,-16.51,-16.45,0,*6D
1512342307.48,24068,3.38,72692.5,-13.87,-16.45,-16.37,0,*60
1512342308.72,24069,3.44,72694.8,-13.85,-16.51,-16.45,0,*63
1512342309.98,24070,3.38,72694.0,-13.85,-16.51,-16.51,0,*6E
1512342311.23,24071,3.44,72696.5,-13.85,-16.59,-16.51,0,*67
1512342312.48,24072,3.44,72704.0,-13.85,-16.69,-16.59,0,*6F
1512342313.74,24073,3.44,72698.5,-13.87,-16.79,-16.65,0,*62
1512342315.02,24074,3.44,72696.5,-13.87,-16.69,-16.59,0,*6B
1512342316.27,24075,3.38,72694.3,-13.87,-16.59,-16.59,0,*69
1512342317.56,24076,3.44,72698.3,-13.87,-16.65,-16.51,0,*6D
1512342318.83,24077,3.44,72694.5,-13.85,-16.65,-16.51,0,*6E
1512342320.07,24078,3.44,72690.8,-13.85,-16.59,-16.51,0,*6E
1512342321.36,24079,3.44,72690.3,-13.87,-16.65,-16.51,0,*62
1512342322.61,24080,3.38,72684.8,-13.87,-16.79,-16.59,0,*61
1512342323.88,24081,3.44,72688.3,-13.87,-16.69,-16.59,0,*61
1512342325.16,24082,3.44,72684.0,-13.87,-16.69,-16.59,0,*62
1512342326.43,24083,3.38,72684.3,-13.87,-16.79,-16.65,0,*6D
1512342327.72,24084,3.38,72688.8,-13.87,-16.69,-16.69,0,*67
1512342328.97,24085,3.38,72702.0,-13.89,-16.75,-16.65,0,*69
1512342330.26,24086,3.44,72698.3,-13.87,-16.69,-16.65,0,*69
1512342331.55,24087,3.44,72698.5,-13.87,-16.65,-16.51,0,*63
1512342332.83,24088,3.44,72698.0,-13.87,-16.65,-16.59,0,*64
1512342334.12,24089,3.44,72698.0,-13.87,-16.65,-16.51,0,*6D
1512342335.37,24090,3.44,72698.3,-13.89,-16.75,-16.65,0,*6D
1512342336.65,24091,3.44,72694.8,-13.87,-16.65,-16.59,0,*6C
1512342337.92,24092,3.44,72694.8,-13.89,-16.69,-16.65,0,*62
1512342339.17,24093,3.44,72692.8,-13.89,-16.75,-16.65,0,*6E
1512342340.42,24094,3.44,72688.3,-13.89,-16.69,-16.55,0,*67
1512342341.67,24095,3.44,72692.0,-13.89,-16.69,-16.55,0,*66
1512342342.92,24096,3.44,72694.3,-13.89,-16.75,-16.65,0,*6B
1512342344.17,24097,3.44,72686.8,-13.89,-16.83,-16.65,0,*63
1512342345.44,24098,3.44,72688.5,-13.89,-16.69,-16.65,0,*68
1512342346.69,24099,3.44,72688.8,-13.87,-16.59,-16.59,0,*6B
1512342347.97,24100,3.44,72688.5,-13.89,-16.69,-16.65,0,*68
1512342349.24,24101,3.44,72684.8,-13.89,-16.65,-16.65,0,*65
1512342350.52,24102,3.44,72688.0,-13.89,-16.69,-16.65,0,*6A
1512342351.81,24103,3.44,72690.5,-13.87,-16.69,-16.65,0,*65
1512342353.08,24104,3.44,72694.0,-13.87,-16.79,-16.65,0,*63
1512342354.33,24105,3.44,72692.3,-13.87,-16.83,-16.59,0,*68
1512342355.58,24106,3.44,72688.5,-13.89,-16.75,-16.69,0,*6F
1512342356.83,24107,3.44,72684.5,-13.89,-16.75,-16.65,0,*62
1512342358.1,24108,3.44,72682.5,-13.89,-16.65,-16.65,0,*6C
1512342359.36,24109,3.44,72688.3,-13.89,-16.65,-16.55,0,*6E
1512342360.58,24110,3.44,72692.8,-13.89,-16.55,-16.41,0,*60
1512342361.81,24111,3.44,72696.3,-13.89,-16.55,-16.55,0,*64
1512342363.11,24112,3.44,72698.0,-13.91,-16.65,-16.65,0,*6E
1512342364.38,24113,3.44,72694.0,-13.91,-16.69,-16.55,0,*60
1512342365.65,24114,3.44,72698.5,-13.91,-16.65,-16.55,0,*6B
1512342366.92,24115,3.44,72690.0,-13.91,-16.69,-16.55,0,*66
1512342368.17,24116,3.44,72690.8,-13.91,-16.75,-16.55,0,*68
1512342369.44,24117,3.44,72696.3,-13.91,-16.83,-16.69,0,*6F
1512342370.71,24118,3.44,72696.0,-13.91,-16.75,-16.69,0,*69
1512342372.01,24119,3.44,72692.3,-13.91,-16.69,-16.65,0,*69
1512342373.28,24120,3.44,72694.0,-13.91,-16.83,-16.65,0,*67
1512342374.55,24121,3.44,72690.0,-13.89,-16.69,-16.65,0,*6B
1512342375.84,24122,3.44,72692.3,-13.91,-16.51,-16.51,0,*6D
1512342377.14,24123,3.44,72686.3,-13.91,-16.13,-16.09,0,*67
1512342378.41,24124,3.44,72682.0,-13.91,-15.99,-15.85,0,*66
1512342379.65,24125,3.44,72676.8,-13.91,-15.99,-15.95,0,*66
1512342380.92,24126,3.44,72682.0,-13.91,-16.09,-15.99,0,*63
1512342382.19,24127,3.44,72682.8,-13.91,-16.13,-15.99,0,*69
1512342383.47,24128,3.44,72688.3,-13.89,-16.23,-16.09,0,*66
1512342384.74,24129,3.44,72690.0,-13.91,-16.37,-16.13,0,*60
1512342386.03,24130,3.44,72690.3,-13.91,-16.23,-16.13,0,*6D
1512342387.33,24131,3.44,72694.8,-13.91,-16.27,-16.13,0,*68
1512342388.59,24132,3.44,72698.3,-13.89,-16.31,-16.23,0,*66
1512342389.88,24133,3.44,72686.8,-13.89,-16.09,-16.09,0,*64
1512342391.18,24134,3.44,72684.8,-13.87,-16.09,-16.09,0,*6D
1512342392.46,24135,3.44,72690.3,-13.89,-16.13,-16.13,0,*62
1512342393.7,24136,3.44,72688.3,-13.89,-16.27,-16.37,0,*60
1512342394.93,24137,3.44,72688.0,-13.89,-16.37,-16.41,0,*61
1512342396.16,24138,3.44,72684.0,-13.89,-16.55,-16.41,0,*6A
1512342397.38,24139,3.44,72692.0,-13.89,-16.55,-16.55,0,*6E
1512342398.64,24140,3.44,72690.0,-13.89,-16.65,-16.55,0,*63
1512342399.91,24141,3.44,72688.8,-13.89,-16.65,-16.69,0,*6D
1512342401.21,24142,3.44,72688.0,-13.91,-16.65,-16.65,0,*6B
1512342402.5,24143,3.44,72686.3,-13.91,-16.69,-16.65,0,*66
1512342403.8,24144,3.44,72696.0,-13.91,-16.65,-16.69,0,*61
1512342405.1,24145,3.44,72694.3,-13.91,-16.65,-16.69,0,*60
1512342406.39,24146,3.44,72690.0,-13.91,-16.65,-16.65,0,*6F
1512342407.69,24147,3.44,72692.8,-13.91,-16.65,-16.65,0,*6E
1512342408.98,24148,3.44,72696.5,-13.91,-16.65,-16.51,0,*66
1512342410.26,24149,3.44,72694.0,-13.91,-16.65,-16.55,0,*63
1512342411.53,24150,3.44,72688.3,-13.91,-16.51,-16.55,0,*6C
1512342412.8,24151,3.44,72684.8,-13.89,-16.51,-16.51,0,*60
1512342414.09,24152,3.44,72698.5,-13.91,-16.51,-16.27,0,*6B
1512342415.34,24153,3.44,72696.3,-13.91,-16.41,-16.41,0,*6B
1512342416.58,24154,3.44,72692.3,-13.93,-16.51,-16.37,0,*6E
1512342417.86,24155,3.44,72688.3,-13.91,-16.51,-16.51,0,*6D
1512342419.15,24156,3.44,72694.5,-13.91,-16.51,-16.51,0,*6E
1512342420.42,24157,3.44,72690.5,-13.91,-16.41,-16.51,0,*6E
1512342421.69,24158,3.44,72694.0,-13.91,-16.51,-16.41,0,*61
1512342422.92,24159,3.44,72688.0,-13.93,-16.55,-16.55,0,*63
1512342424.17,24160,3.44,72688.8,-13.91,-16.55,-16.55,0,*6B
1512342425.41,24161,3.44,72682.8,-13.91,-16.55,-16.55,0,*6A
1512342426.69,24162,3.44,72680.5,-13.91,-16.65,-16.55,0,*6A
1512342427.98,24163,3.44,72686.8,-13.91,-16.65,-16.65,0,*68
1512342429.28,24164,3.44,72686.5,-13.91,-16.65,-16.65,0,*6F
1512342430.55,24165,3.44,72694.0,-13.91,-16.65,-16.55,0,*6D
1512342431.77,24166,3.44,72688.3,-13.93,-16.37,-16.37,0,*6F
1512342433.06,24167,3.44,72692.8,-13.91,-16.23,-16.27,0,*68
1512342434.33,24168,3.44,72692.3,-13.91,-16.37,-16.27,0,*62
1512342435.55,24169,3.44,72692.0,-13.93,-16.37,-16.37,0,*60
1512342436.81,24170,3.44,72694.5,-13.91,-16.51,-16.41,0,*6B
1512342438.06,24171,3.44,72692.3,-13.93,-16.51,-16.41,0,*68
1512342439.31,24172,3.44,72698.8,-13.91,-16.55,-16.55,0,*68
1512342440.56,24173,3.44,72692.5,-13.91,-16.55,-16.55,0,*69
1512342441.83,24174,3.44,72694.8,-13.91,-16.55,-16.69,0,*61
1512342443.1,24175,3.44,72692.3,-13.93,-16.69,-16.69,0,*6D
1512342444.37,24176,3.44,72694.5,-13.91,-16.69,-16.55,0,*63
1512342445.66,24177,3.44,72692.5,-13.91,-16.69,-16.69,0,*6D
1512342446.93,24178,3.44,72692.5,-13.93,-16.69,-16.69,0,*60
1512342448.17,24179,3.44,72698.0,-13.93,-16.75,-16.65,0,*60
1512342449.42,24180,3.44,72696.5,-13.93,-16.75,-16.69,0,*6A
1512342450.69,24181,3.44,72696.8,-13.93,-16.69,-16.69,0,*66
1512342451.95,24182,3.44,72690.0,-13.93,-16.69,-16.69,0,*65
1512342453.22,24183,3.44,72692.0,-13.93,-16.65,-16.69,0,*68
1512342454.49,24184,3.44,72688.8,-13.93,-16.65,-16.65,0,*63
1512342455.76,24185,3.44,72688.5,-13.93,-16.69,-16.65,0,*6E
1512342457.03,24186,3.44,72684.8,-13.93,-16.65,-16.69,0,*6D
1512342458.28,24187,3.44,72686.0,-13.95,-16.75,-16.75,0,*66
1512342459.53,24188,3.44,72686.5,-13.95,-16.79,-16.75,0,*65
1512342460.8,24189,3.44,72686.0,-13.93,-16.69,-16.65,0,*62
1512342462.05,24190,3.44,72684.3,-13.95,-16.59,-16.55,0,*6C
1512342463.28,24191,3.44,72682.5,-13.95,-16.59,-16.45,0,*6C
1512342464.53,24192,3.44,72694.0,-13.95,-16.59,-16.55,0,*6E
1512342465.77,24193,3.44,72696.3,-13.95,-16.55,-16.45,0,*62
1512342467.04,24194,3.44,72694.3,-13.93,-17.03,-16.65,0,*63
1512342468.31,24195,3.44,72688.8,-13.93,-17.17,-16.69,0,*6B
1512342469.58,24196,3.44,72692.8,-13.93,-17.41,-16.65,0,*67
1512342470.85,24197,3.44,72690.0,-13.93,-17.41,-16.65,0,*66
1512342472.15,24198,3.44,72686.3,-13.91,-17.55,-16.69,0,*62
1512342473.41,24199,3.44,72682.3,-13.93,-17.55,-16.69,0,*61
1512342474.66,24200,3.44,72678.3,-13.91,-17.73,-16.83,0,*60
1512342475.87,24201,3.44,72682.0,-13.93,-17.87,-16.97,0,*6D
1512342477.17,24202,3.44,72688.8,-13.91,-17.93,-17.03,0,*65
1512342478.41,24203,3.44,72680.8,-13.91,-18.07,-17.31,0,*67
1512342479.68,24204,3.44,72684.3,-13.91,-18.07,-17.17,0,*64
1512342480.92,24205,3.44,72682.0,-13.91,-18.17,-17.31,0,*60
1512342482.18,24206,3.44,72688.0,-13.91,-18.01,-17.31,0,*64
1512342483.45,24207,3.44,72688.5,-13.91,-18.01,-17.31,0,*65
1512342484.69,24208,3.44,72688.8,-13.91,-18.07,-17.31,0,*6C
1512342485.93,24209,3.44,72682.0,-13.91,-18.21,-17.31,0,*69
1512342487.17,24210,3.44,72684.3,-13.93,-18.21,-17.41,0,*64
1512342488.41,24211,3.44,72684.0,-13.91,-18.17,-17.31,0,*65
1512342489.65,24212,3.44,72694.0,-13.93,-18.21,-17.41,0,*66
1512342490.95,24213,3.44,72688.5,-13.91,-18.31,-17.17,0,*67
1512342492.22,24214,3.44,72688.0,-13.91,-18.21,-17.03,0,*64
1512342493.49,24215,3.44,72688.3,-13.93,-18.31,-17.17,0,*63
1512342494.73,24216,3.44,72688.5,-13.93,-18.35,-17.31,0,*60
1512342496.02,24217,3.44,72692.0,-13.91,-18.35,-17.25,0,*66
1512342497.29,24218,3.44,72690.8,-13.91,-18.35,-17.31,0,*6C
1512342498.56,24219,3.44,72688.8,-13.93,-18.31,-17.17,0,*6F
1512342499.83,24220,3.44,72690.0,-13.93,-18.31,-17.25,0,*64
1512342501.12,24221,3.44,72688.8,-13.91,-18.35,-17.25,0,*63
1512342502.39,24222,3.44,72688.5,-13.93,-18.35,-17.25,0,*62